Location: *
(37.5506°N, 127.0097°E)
Time: 14:19:13
(UTC+00:00)

Daily predictions for brighter satellites

Satellite Brightness Start Highest point End
(mag) Time Altitude Azimuth Time Altitude Azimuth Time Altitude Azimuth
Cosmos 1023 Rocket 4.4 12:03:45 10° SSW 12:08:56 81° WNW 12:14:07 10° NNE
Cosmos 1656 Rocket 3.8 12:07:11 10° NNW 12:12:47 70° WSW 12:14:00 53° S
CZ-2C R/B 2.9 12:08:43 10° N 12:13:49 63° WNW 12:18:28 13° SSW
USA 234 3.4 12:09:07 10° NE 12:15:39 73° NW 12:22:08 10° SW
ATLAS 2AS CENTAUR R/B 2.6 12:11:26 10° NNW 12:18:57 76° ENE 12:20:10 62° ESE
Cosmos 1461 4.3 12:14:45 10° NNW 12:17:51 34° NNE 12:17:51 34° NNE
Cosmos 2181 Rocket 3.9 12:28:25 72° ENE 12:28:25 72° ENE 12:34:21 10° N
Cosmos 962 Rocket 4.4 12:30:26 10° N 12:36:35 77° W 12:37:01 73° SW
Terra 4.2 12:40:38 13° NNE 12:40:38 13° NNE 12:41:25 10° NNE
SL-8 Rocket 4.1 12:34:23 10° N 12:40:02 68° NNE 12:40:02 68° NNE
Spot 2 Rocket 4.3 12:50:48 47° NNW 12:50:48 47° NNW 12:54:27 10° NNW
Resurs 01 Rocket 3.4 12:51:28 29° WNW 12:51:28 29° WNW 12:54:37 10° NW
ATLAS 5 CENTAUR R/B 3.5 12:47:42 10° WSW 12:51:14 26° NW 12:55:05 10° NNE
Cosmos 2366 rocket 4.4 12:45:57 10° N 12:50:36 52° NNE 12:50:36 52° NNE
COSMOS 2455 3.5 12:59:32 10° NNW 13:04:01 52° NNW 13:04:01 52° NNW
ATLAS 5 CENTAUR R/B 4.3 12:58:35 10° SW 13:39:45 13° ESE 13:45:24 10° ESE
CZ-4C R/B 4.5 13:31:14 10° N 13:36:26 23° NE 13:36:26 23° NE
SL-16 R/B 4.5 16:28:59 23° NNE 16:28:59 23° NNE 16:31:41 10° N
ADEOS II 3.9 17:34:23 10° NNE 17:36:58 28° NE 17:36:58 28° NE
Resurs 1-4 Rocket 4.2 17:41:29 10° N 17:43:08 20° N 17:43:08 20° N
Cosmos 2237 Rocket 3.4 17:55:53 10° N 18:01:10 38° ENE 18:03:21 28° ESE
Tsikada Rocket 4.5 18:05:25 56° N 18:05:25 56° N 18:10:23 10° N
CZ-2D R/B 4.1 17:59:54 10° N 18:01:55 21° NNW 18:01:55 21° NNW
SL-16 R/B 4.5 18:14:03 16° NW 18:14:03 16° NW 18:15:24 10° NNW
Cosmos 2297 Rocket 2.6 18:18:37 60° NE 18:18:37 60° NE 18:23:19 10° NNE
ARIANE 5 R/B 3.3 18:15:50 10° NNE 18:19:36 49° NNE 18:19:36 49° NNE
Cosmos 2219 3.6 18:24:24 56° N 18:24:24 56° N 18:28:59 10° NNE
USA 267 3.3 18:24:06 10° NE 18:30:32 64° NW 18:30:56 62° WNW
ATLAS 3B R/B 4.3 18:27:33 18° SSE 18:30:48 25° ESE 18:36:04 10° ENE
H-2A R/B 4.2 18:34:03 19° N 18:34:03 19° N 18:35:15 10° N
VEP-3 4.5 18:31:18 34° S 18:34:01 39° SSE 19:04:41 10° E
Cosmos 2227 Rocket 2.1 18:44:04 74° NW 18:44:04 74° NW 18:49:28 10° NNE
USA 238 DEB 3.5 18:48:24 62° W 18:49:11 67° NW 18:56:01 10° NNE
USA 238 3.5 18:48:28 62° W 18:49:17 68° NW 18:56:09 10° NNE
deb Chang Zheng 4 4.0 18:46:22 10° NNE 18:50:37 55° E 18:50:39 55° ESE
Cosmos 2279 Rocket 4.1 18:45:34 10° N 18:51:48 72° E 18:57:32 13° SSE
CZ-2C R/B 3.7 18:50:05 10° NNE 18:52:58 45° NNE 18:52:58 45° NNE
Cosmos 2221 Rocket 4.5 18:53:07 38° SE 18:54:11 46° E 18:58:26 10° NNE
CZ-2C R/B 4.4 18:51:07 10° NE 18:54:41 22° E 18:58:14 10° SSE
Cosmos 389 Rocket 3.7 18:57:15 41° ENE 18:57:15 41° ENE 19:00:08 10° NNE
USA 234 4.2 18:56:19 10° ESE 19:02:27 45° NE 19:08:36 10° NW
Cosmos 1980 3.8 18:57:51 10° NNW 19:02:43 55° WNW 19:02:43 55° WNW
STARLINK-1064 4.3 19:05:02 45° SE 19:05:03 45° SE 19:09:00 10° ENE
Sich 1 Rocket 3.6 19:02:50 10° N 19:07:14 77° E 19:08:29 46° SSE
BREEZE M DEB (TANK) 4.4 19:08:31 20° NNE 19:08:31 20° NNE 19:09:44 10° NE
Cosmos 1544 3.5 19:03:58 10° N 19:07:31 60° ENE 19:07:31 60° ENE
Okean 2 Rocket 4.1 19:05:22 10° N 19:09:43 47° E 19:14:04 10° SSE
STARLINK-1041 4.1 19:09:49 50° SE 19:10:00 50° SE 19:14:02 10° ENE
CZ-4B R/B 2.4 19:09:42 28° SE 19:11:10 47° ENE 19:14:33 10° N
Okean 3 3.5 19:11:14 55° SSE 19:12:00 72° E 19:16:09 10° NNE
NOSS 3-2 (A) 3.7 19:13:51 40° WNW 19:14:57 44° NW 19:21:01 10° NNE
STARLINK-1038 3.9 19:14:36 54° SSE 19:14:57 56° SE 19:19:02 10° NE
ADEOS II 3.8 19:15:13 10° NNW 19:17:56 18° NW 19:17:56 18° NW
Cosmos 2180 Rocket 4.4 19:13:08 10° N 19:19:22 87° W 19:25:40 10° S
Cosmos 2082 3.7 19:17:52 46° SW 19:19:26 66° WNW 19:25:09 10° NNE
STARLINK-1046 3.8 19:19:23 56° S 19:19:56 63° SE 19:24:02 10° NE
SL-16 R/B 2.6 19:14:39 10° NNW 19:20:16 63° ENE 19:25:52 10° SSE
Cosmos 1048 Rocket 3.9 19:18:53 10° NNW 19:24:14 74° WSW 19:29:35 10° S
Meteor 1-19 Rocket 4.3 19:23:11 42° WSW 19:24:38 53° WNW 19:30:03 10° N
STARLINK-1039 3.7 19:24:08 55° SSW 19:24:52 70° SE 19:29:00 10° NE
PSLV R/B 3.6 19:21:04 10° NNE 19:25:27 83° E 19:27:31 31° S
CENTAUR R/B 2.4 19:23:28 39° SW 19:25:45 73° NW 19:32:30 10° NNE
FALCON 9 DEB 3.8 19:28:21 43° SSE 19:28:21 43° SSE 19:30:49 10° SE
COSMOS 2441 4.2 19:23:32 10° NNE 19:28:20 87° WNW 19:31:01 27° SSW
ATLAS 5 CENTAUR R/B 3.2 19:23:18 15° SSW 19:28:21 40° SE 19:31:08 10° ENE
Cosmos 1125 Rocket 3.8 19:28:01 41° WSW 19:29:12 48° WNW 19:34:20 10° N
STARLINK-1045 3.6 19:28:55 52° SSW 19:29:50 78° SE 19:33:59 10° NE
Geosat 3.9 19:29:42 10° NNE 19:34:44 76° WNW 19:37:17 30° SW
STARLINK-1050 3.5 19:33:46 48° SW 19:34:51 88° SE 19:39:01 10° NE
IDEFIX/ARIANE 42P 3.0 19:32:11 10° N 19:37:03 42° WNW 19:38:41 33° WSW
STARLINK-1055 3.5 19:38:33 43° SW 19:39:50 84° NW 19:44:00 10° NE
STARLINK-1022 3.5 19:43:21 38° WSW 19:44:50 76° NW 19:48:59 10° NE
Cosmos 2237 Rocket 3.0 19:40:18 10° NW 19:44:52 27° W 19:44:52 27° W
NOSS 3-2 (C) 3.9 19:42:35 28° WSW 19:45:08 43° NW 19:51:13 10° NNE
COBE Rocket 4.4 19:46:02 27° SW 19:47:41 35° W 19:52:01 10° NNW
STARLINK-1042 3.6 19:48:07 34° WSW 19:49:48 69° NW 19:53:57 10° NE
Cosmos 1356 3.3 19:47:48 10° N 19:51:14 90° W 19:54:39 10° S
MSX 4.1 19:46:31 10° N 19:52:04 50° WNW 19:56:21 17° SW
STARLINK-1056 3.7 19:52:52 30° WSW 19:54:45 63° NW 19:58:52 10° NE
Cosmos 2263 Rocket 3.0 19:51:27 10° S 19:56:54 53° ESE 20:02:25 10° NNE
STARLINK-1054 3.8 19:57:38 26° WSW 19:59:44 57° NW 20:03:49 10° NE
ATLAS 5 CENTAUR R/B 3.8 19:54:16 10° NNW 19:59:49 41° NE 20:06:06 10° ESE
ADEOS 3.6 19:56:00 10° N 20:01:10 63° WNW 20:06:18 10° SSW
Meteor 2-4 Rocket 4.3 19:57:50 17° SW 20:02:06 41° WNW 20:07:40 10° N
Okean 1 Rocket 4.0 19:57:54 10° N 20:02:10 51° E 20:06:26 10° SSE
Cosmos 2297 Rocket 3.9 20:00:26 14° WNW 20:02:18 16° NW 20:05:43 10° NNW
STARLINK-1062 4.0 20:02:25 23° WSW 20:04:43 51° NW 20:08:46 10° NE
STARLINK-1053 4.1 20:07:14 21° WSW 20:09:45 47° NW 20:13:46 10° NE
STARLINK-52 4.3 20:12:25 20° SW 20:12:33 20° SW 20:14:58 10° S
H-2A R/B 3.1 20:10:17 10° NNE 20:14:16 55° E 20:18:06 10° S
STARLINK-1061 4.2 20:12:00 18° WSW 20:14:44 43° NW 20:18:41 10° NE
Cosmos 1092 Rocket 4.0 20:10:22 10° SSW 20:16:39 65° W 20:22:57 10° N
Cosmos 1437 Rocket 3.6 20:14:17 10° S 20:18:17 57° E 20:22:18 10° NNE
Meteor 1-4 Rocket 3.5 20:15:51 14° SW 20:18:36 31° WNW 20:22:00 10° NNW
STARLINK-1067 4.4 20:16:48 16° W 20:19:44 39° NW 20:23:39 10° NE
ATLAS 3B R/B 2.8 20:14:51 12° SW 20:21:02 56° NW 20:27:33 10° NNE
Cosmos 1674 Rocket 4.0 20:17:47 10° SSW 20:21:58 41° W 20:26:08 10° N
Cosmos 1378 4.1 20:18:23 10° S 20:21:59 51° E 20:25:37 10° NNE
STARLINK-1058 4.5 20:21:35 14° W 20:24:44 36° NW 20:28:36 10° NE
Cosmos 2227 4.2 20:20:42 10° SSW 20:26:18 70° WNW 20:31:55 10° NNE
Cosmos 2227 Rocket 4.2 20:27:14 10° WNW 20:28:49 11° NW 20:30:25 10° NNW
Cosmos 2026 Rocket 3.9 20:24:37 10° SSW 20:30:42 69° W 20:36:46 10° N
Cosmos 1818 3.5 20:25:43 10° NW 20:31:09 69° WSW 20:36:30 10° SSE
CZ-2C R/B 3.1 20:28:55 10° N 20:32:55 31° WNW 20:36:55 10° SW
Cosmos 1689 Rocket 3.6 20:32:55 10° SW 20:35:04 18° W 20:37:12 10° NW
Meteor 1-31 Rocket 3.1 20:32:41 10° N 20:36:29 48° WNW 20:40:15 10° SSW
Cosmos 1867 3.8 20:35:06 10° SW 20:40:24 54° NW 20:45:46 10° NNE
Okean 2 3.7 20:36:56 10° S 20:41:02 72° E 20:45:08 10° NNE
Cosmos 1943 3.9 20:35:26 10° NNW 20:41:06 63° ENE 20:46:44 10° SSE
Gbstr 26 Del rocket 3.8 20:34:56 10° SW 20:41:13 81° SE 20:46:14 10° NE
ALOS 2.3 20:37:03 10° NNE 20:41:45 89° E 20:46:25 10° SSW
PSLV R/B 4.3 20:39:12 10° NNE 20:43:19 68° ESE 20:47:20 10° S
PSLV R/B 4.4 20:39:44 10° S 20:43:41 39° W 20:47:39 10° NNW
USA 234 3.5 20:39:02 10° SSE 20:45:21 51° SW 20:51:41 10° NW
SeaSat 1 2.8 20:41:39 10° S 20:46:19 43° WSW 20:51:01 10° NW
Centaur D-1A AC-31 4.2 21:45:35 10° WSW 22:26:34 49° S 22:32:32 10° ESE
